"Pseudo-MPEC" for P11ZOCC
Created 2024 Oct 4 14:22:23 UT using Find_Orb
Click here for an explanation of pseudo-MPECs
Astrometry: P11ZOCC* C2024 10 01.44281702 05 57.541-43 27 14.15 ~A1C7 20.34wXNEOCPF51 P11ZOCC C2024 10 01.45974402 06 21.066-43 24 24.31 ~A1C7 20.13wXNEOCPF51 P11ZOCC C2024 10 01.46820502 06 32.838-43 22 58.09 ~A1C7 20.02wXNEOCPF51 P11ZOCC C2024 10 01.48642102 06 57.840-43 19 53.84 ~A1D7x19.81wXNEOCPF51 P11ZOCC C2024 10 01.49415002 07 08.647-43 18 33.67 ~A1D7 19.94wXNEOCPF51 P11ZOCC C2024 10 01.50190002 07 19.407-43 17 13.14 ~A1D7 20.01wXNEOCPF51 P11ZOCC C2024 10 02.46838302 30 03.661-40 22 46.96 ~A2Kq 19.96GVNEOCPF51 P11ZOCC C2024 10 02.46920002 30 04.677-40 22 37.46 ~A2Kq 19.75GVNEOCPF51 P11ZOCC |C2024 10 04.31479003 06 33.690-34 18 48.50 ~A48M 20.1 GVNEOCP807 P11ZOCC |C2024 10 04.31686003 06 35.720-34 18 23.60 ~A48M 20.1 GVNEOCP807 P11ZOCC |C2024 10 04.31893003 06 37.720-34 17 58.40 ~A48M 20.2 GVNEOCP807 P11ZOCC |C2024 10 04.32100003 06 39.740-34 17 33.40 ~A48M 20.3 GVNEOCP807 Station data: (807) Cerro Tololo Observatory, La Serena (S30.169133 W70.805900) Chile. Observer R. Holmes. 0.61-m f/6.5 astrograph + CCD. (F51) Pan-STARRS 1, Haleakala (N20.707234 W156.255910) US/Hawaii. Observers J. Bulger, T. Lowe, A. Schultz, M. Willman. Measurers K. Chambers, S. Chastel, T. de Boer, L. Denneau, J. Fairlamb, H. Flewelling, M. Huber, C.-C. Lin, E. Magnier, Y. Ramanjooloo, R. Wainscoat, R. Weryk. 1.8-m Ritchey-Chrétien + CCD. Orbital elements: P11ZOCC Perihelion 2024 Oct 2.47179 +/- 0.00594 TT = 11:19:22 (JD 2460585.97179) Epoch 2024 Oct 4.0 TT = JDT 2460587.5 Earth MOID: 0.0454 Ma: 0.0336 M 0.36636375 +/- 0.0016 (J2000 ecliptic) AutoNEOCP n 0.23973362 +/- 0.00193 Peri. 263.00991 +/- 0.027 a 2.56635512 +/- 0.0137 Node 106.58227 +/- 0.026 e 0.5986211 +/- 0.00212 Incl. 2.00327 +/- 0.006 P 4.11126 H 24.93 G 0.15 U 8.5 q 1.03008060 +/- 9.32e-5 Q 4.10262965 +/- 0.0273 11 of 12 observations 2024 Oct. 1-4; mean residual 0".22
Residuals in arcseconds: 241001 F51 .26- .04- 241001 F51 .29- .32- 241004 807 .15- .08+ 241001 F51 .22- .19- 241001 F51 .46+ .22+ 241004 807 .06+ .05- 241001 F51 .28+ .42+ 241002 F51 .00 .27- 241004 807 .10- .12+ 241001 F51( 1.8- 1.1-) 241002 F51 .07+ .15+ 241004 807 .01- .07+ Ephemerides (geocentric): Date (UTC) HH RA Dec delta r elong mag " sig PA ---- -------- ------------ ------------ ------ ------ ----- --- -------- 2024 10 04 14 03 11 13.236 -33 24 57.44 .04778 1.0305 128.2 20.2 .102 179 2024 10 04 15 03 11 55.396 -33 16 38.30 .04783 1.0305 128.2 20.2 .097 179 2024 10 04 16 03 12 37.317 -33 08 19.29 .04789 1.0305 128.2 20.3 .091 179 2024 10 04 17 03 13 19.002 -33 00 00.44 .04794 1.0305 128.2 20.3 .086 179 2024 10 04 18 03 14 00.452 -32 51 41.78 .04800 1.0305 128.2 20.3 .080 179 2024 10 04 19 03 14 41.668 -32 43 23.32 .04805 1.0305 128.2 20.3 .075 179 2024 10 04 20 03 15 22.650 -32 35 05.08 .04811 1.0305 128.2 20.3 .070 179 2024 10 04 21 03 16 03.401 -32 26 47.09 .04817 1.0306 128.1 20.3 .065 179 2024 10 04 22 03 16 43.920 -32 18 29.37 .04823 1.0306 128.1 20.3 .059 179 2024 10 04 23 03 17 24.210 -32 10 11.95 .04828 1.0306 128.1 20.3 .054 179 2024 10 05 00 03 18 04.271 -32 01 54.83 .04834 1.0306 128.1 20.3 .049 178 2024 10 05 01 03 18 44.104 -31 53 38.05 .04840 1.0306 128.1 20.3 .044 178 2024 10 05 02 03 19 23.711 -31 45 21.62 .04846 1.0306 128.1 20.3 .039 177 2024 10 05 03 03 20 03.093 -31 37 05.56 .04852 1.0307 128.1 20.3 .034 177 2024 10 05 04 03 20 42.250 -31 28 49.90 .04858 1.0307 128.0 20.3 .029 176 2024 10 05 05 03 21 21.184 -31 20 34.65 .04865 1.0307 128.0 20.3 .024 174 2024 10 05 06 03 21 59.897 -31 12 19.84 .04871 1.0307 128.0 20.3 .019 172 2024 10 05 07 03 22 38.389 -31 04 05.47 .04877 1.0307 128.0 20.3 .014 168 2024 10 05 08 03 23 16.661 -30 55 51.58 .04883 1.0308 128.0 20.3 9.1m 159 2024 10 05 09 03 23 54.714 -30 47 38.18 .04890 1.0308 128.0 20.3 5.1m 136 2024 10 05 10 03 24 32.551 -30 39 25.29 .04896 1.0308 128.0 20.3 4.1m 72 2024 10 05 11 03 25 10.171 -30 31 12.93 .04903 1.0308 128.0 20.3 7.5m 35 2024 10 05 12 03 25 47.576 -30 23 01.11 .04909 1.0308 127.9 20.3 .012 23 2024 10 05 13 03 26 24.767 -30 14 49.85 .04916 1.0309 127.9 20.3 .017 18 2024 10 05 14 03 27 01.746 -30 06 39.17 .04923 1.0309 127.9 20.3 .021 15 2024 10 05 15 03 27 38.513 -29 58 29.09 .04929 1.0309 127.9 20.3 .026 14 2024 10 05 16 03 28 15.070 -29 50 19.63 .04936 1.0309 127.9 20.3 .031 12 2024 10 05 17 03 28 51.417 -29 42 10.79 .04943 1.0310 127.9 20.3 .035 12 2024 10 05 18 03 29 27.556 -29 34 02.60 .04950 1.0310 127.9 20.3 .040 11 2024 10 05 19 03 30 03.489 -29 25 55.08 .04957 1.0310 127.8 20.3 .044 11 2024 10 05 20 03 30 39.215 -29 17 48.23 .04964 1.0310 127.8 20.3 .049 10 2024 10 05 21 03 31 14.737 -29 09 42.08 .04971 1.0310 127.8 20.3 .054 10 2024 10 05 22 03 31 50.056 -29 01 36.64 .04978 1.0311 127.8 20.3 .058 10 2024 10 05 23 03 32 25.172 -28 53 31.92 .04985 1.0311 127.8 20.3 .063 10 2024 10 06 00 03 33 00.087 -28 45 27.94 .04992 1.0311 127.8 20.4 .067 10 2024 10 06 01 03 33 34.802 -28 37 24.72 .05000 1.0311 127.7 20.4 .071 10 2024 10 06 02 03 34 09.317 -28 29 22.26 .05007 1.0312 127.7 20.4 .076 10 2024 10 06 03 03 34 43.636 -28 21 20.59 .05014 1.0312 127.7 20.4 .080 10 2024 10 06 04 03 35 17.757 -28 13 19.71 .05022 1.0312 127.7 20.4 .085 10 2024 10 06 05 03 35 51.683 -28 05 19.65 .05029 1.0312 127.7 20.4 .089 10 2024 10 06 06 03 36 25.415 -27 57 20.40 .05037 1.0313 127.7 20.4 .093 10 2024 10 06 07 03 36 58.954 -27 49 21.99 .05044 1.0313 127.7 20.4 .097 10 2024 10 06 08 03 37 32.300 -27 41 24.43 .05052 1.0313 127.6 20.4 .102 10 2024 10 06 09 03 38 05.456 -27 33 27.73 .05059 1.0314 127.6 20.4 .106 10 2024 10 06 10 03 38 38.421 -27 25 31.91 .05067 1.0314 127.6 20.4 .110 10 2024 10 06 11 03 39 11.198 -27 17 36.97 .05075 1.0314 127.6 20.4 .114 10 2024 10 06 12 03 39 43.788 -27 09 42.93 .05083 1.0314 127.6 20.4 .118 10 2024 10 06 13 03 40 16.191 -27 01 49.79 .05091 1.0315 127.6 20.4 .122 10